Regional Weather Roundup
Issued by NWS

Home | Current Version | Previous Version | Graphics & Text | Print | Product List | Glossary Off
Versions: 1 2 3 4 5 6 7 8 9 10 11 12 13 14 15 16 17 18 19 20 21 22 23 24 25 26 27 28 29 30 31 32 33 34 35 36 37 38 39 40 41 42 43 44 45 46 47 48 49 50

000
ASUS43 KTOP 050459
RWRKS

WEATHER ROUNDUP FOR KANSAS
NATIONAL WEATHER SERVICE GOODLAND KS
1200 AM CDT TUE MAY 05 2015

NOTE:  "FAIR" INDICATES FEW OR NO CLOUDS BELOW 12,000 FEET WITH NO
SIGNIFICANT WEATHER AND/OR OBSTRUCTIONS TO VISIBILITY.

KSZ001>006-013>018-027>032-041>047-050600-
NORTHWEST KANSAS

CITY           SKY/WX    TMP DP  RH WIND       PRES   REMARKS
GOODLAND       CLOUDY    49  47  93 NE13      30.08F
HAYS           CLOUDY    59  52  77 E10       30.07R
HILL CITY      CLOUDY    57  54  89 N13       30.03F FOG
RUSSELL        LGT RAIN  60  60 100 E5        30.04R FOG
$$

KSZ061>065-074>080-084>089-050600-
SOUTHWEST KANSAS

CITY           SKY/WX    TMP DP  RH WIND       PRES   REMARKS
DODGE CITY     LGT RAIN  59  56  89 N9        30.06R FOG
ELKHART          N/A     56  51  84 N6          N/A
GARDEN CITY    RAIN      55  55 100 NE20      30.01F
GREAT BEND     CLOUDY    61  55  82 NE7       30.06R
LIBERAL        CLOUDY    61  54  77 E14       30.02F THUNDER
$$

KSZ066>073-081>083-090>101-050600-
SOUTHEAST KANSAS

CITY           SKY/WX    TMP DP  RH WIND       PRES   REMARKS
CHANUTE        MOCLDY    64  59  83 SE6       30.09F
COFFEYVILLE    PTCLDY    63  56  78 SE6       30.09R
HUTCHINSON     CLOUDY    66  57  72 NE16G23   30.07R
MEDICINE LODGE   N/A     66  58  75 SE7       30.03R
NEWTON         CLOUDY    66  54  63 E3        30.10R
PARSONS        PTCLDY    64  58  80 SE3       30.10S
WICHITA INTL   CLOUDY    70  56  61 SE9       30.05S
WICHITA JABRA  CLOUDY    67  57  70 SE6       30.06S
WINFIELD       CLOUDY    67  58  72 SE7       30.07S
$$

KSZ007>012-019>026-033>040-048>060-102>105-050600-
NORTHEAST KANSAS

CITY           SKY/WX    TMP DP  RH WIND       PRES   REMARKS
CONCORDIA      LGT RAIN  61  60  97 S7        30.06F
EMPORIA        CLOUDY    64  57  78 NE10      30.11F
LAWRENCE       CLOUDY    63  61  93 NW6       30.13S
MANHATTAN      HVY RAIN  60  59  96 W9        30.12R FOG
OLATHE IND     CLOUDY    63  61  93 N5        30.12F
OLATHE EXE     CLOUDY    63  62  97 CALM      30.10F
SALINA         LGT RAIN  64  61  90 NE8       30.07F
TOPEKA BILLARD CLOUDY    63  61  93 E5        30.10F
TOPEKA FORBES  CLOUDY    63  60  90 SE5       30.10F
$$


USA.gov is the U.S. government's official web portal to all federal, state and local government web resources and services.